TimeEDT,TemperatureF,Dew PointF,Humidity,Sea Level PressureIn,VisibilityMPH,Wind Direction,Wind SpeedMPH,Gust SpeedMPH,PrecipitationIn,Events,Conditions,WindDirDegrees,DateUTC
12:25 AM,51.3,50.4,97,29.65,-9999.0,Variable,3.5,15.0,N/A,,Unknown,0,2013-05-12 04:25:00
1:25 AM,50.5,49.3,95,29.65,-9999.0,Variable,4.6,12.7,N/A,,Unknown,0,2013-05-12 05:25:00
2:25 AM,49.6,44.6,83,29.66,-9999.0,SSW,10.4,16.1,N/A,,Unknown,200,2013-05-12 06:25:00
3:25 AM,48.6,45.3,89,29.64,-9999.0,Calm,Calm,-,N/A,,Unknown,0,2013-05-12 07:25:00
4:25 AM,48.6,45.0,87,29.65,-9999.0,Variable,5.8,11.5,N/A,,Unknown,0,2013-05-12 08:25:00
5:25 AM,46.9,46.2,97,29.65,-9999.0,Calm,Calm,-,N/A,,Unknown,0,2013-05-12 09:25:00
6:25 AM,47.8,46.4,95,29.67,-9999.0,Variable,3.5,-,N/A,,Unknown,0,2013-05-12 10:25:00
7:25 AM,50.9,44.6,79,29.66,-9999.0,Calm,Calm,-,N/A,,Unknown,0,2013-05-12 11:25:00
8:25 AM,52.5,44.6,74,29.65,-9999.0,Calm,Calm,-,N/A,,Unknown,0,2013-05-12 12:25:00
9:25 AM,53.8,45.9,75,29.63,-9999.0,Calm,Calm,-,N/A,,Unknown,0,2013-05-12 13:25:00
10:25 AM,55.0,44.1,67,29.61,-9999.0,Variable,2.3,-,N/A,,Unknown,0,2013-05-12 14:25:00
11:25 AM,54.9,44.6,68,29.60,-9999.0,Calm,Calm,-,N/A,,Unknown,0,2013-05-12 15:25:00
12:25 PM,52.7,47.5,82,29.60,-9999.0,Variable,6.9,-,N/A,,Unknown,0,2013-05-12 16:25:00
1:25 PM,52.9,49.6,89,29.58,-9999.0,Calm,Calm,-,0.08,,Unknown,0,2013-05-12 17:25:00
2:25 PM,52.3,47.8,85,29.56,-9999.0,Calm,Calm,-,0.01,,Unknown,0,2013-05-12 18:25:00
3:25 PM,52.9,51.6,95,29.55,-9999.0,Variable,3.5,-,0.03,,Unknown,0,2013-05-12 19:25:00
4:25 PM,52.0,50.9,96,29.54,-9999.0,Calm,Calm,-,N/A,,Unknown,0,2013-05-12 20:25:00
5:25 PM,52.7,51.8,97,29.54,-9999.0,Calm,Calm,-,0.01,,Unknown,0,2013-05-12 21:25:00
6:25 PM,49.6,49.5,99,29.55,-9999.0,Variable,4.6,-,0.07,,Unknown,0,2013-05-12 22:25:00
7:25 PM,49.6,49.1,98,29.57,-9999.0,Variable,3.5,-,0.03,,Unknown,0,2013-05-12 23:25:00
8:25 PM,43.3,38.5,83,29.60,-9999.0,Variable,4.6,-,0.01,,Unknown,0,2013-05-13 00:25:00
9:25 PM,42.6,40.6,93,29.62,-9999.0,Calm,Calm,-,N/A,,Unknown,0,2013-05-13 01:25:00
10:25 PM,42.8,40.1,90,29.62,-9999.0,Calm,Calm,-,N/A,,Unknown,0,2013-05-13 02:25:00
11:25 PM,43.7,33.8,68,29.64,-9999.0,Variable,4.6,13.8,N/A,,Unknown,0,2013-05-13 03:25:00